Location: Great Malvern
(52.1167°N, 2.3167°W)
Time: 10:39:32
(UTC+00:00)

Cosmos 1655 Rocket - Pass Details

Date: 18 September 2020
Orbit: 971 x 1005 km, 82.9° (Epoch: 25 October)

Event Time Altitude Azimuth Distance (km) Brightness Sun altitude
Rises 21:03:00 0° 350° (N) 3,685 7.7 -24.5°
Reaches altitude 10° 21:05:33 10° 354° (N) 2,737 6.9 -24.8°
Maximum altitude 21:11:47 65° 76° (ENE) 1,078 4.0 -25.5°
Enters shadow 21:12:32 60° 112° (ESE) 1,121 3.9 -25.6°
